Location: Cheyres
(46.8153°N, 6.7877°E)
Time: 13:03:45
(UTC+00:00)

Meteor 2-4 Rocket - Pass Details

Date: 11 May 2021
Orbit: 799 x 909 km, 81.2° (Epoch: 19 June)

Event Time Altitude Azimuth Distance (km) Brightness Sun altitude
Exits shadow 22:47:07 57° 139° (SE) 1,018 3.8 -24.4°
Maximum altitude 22:47:58 65° 97° (E) 953 3.8 -24.4°
Drops below altitude 10° 22:53:32 10° 17° (NNE) 2,484 7.0 -24.6°
Sets 22:55:57 0° 14° (NNE) 3,407 7.9 -24.6°
